Location: Poprad
(49.0500°N, 20.3000°E)
Time: 09:00:27
(UTC+02:00)

ISS - Visible Passes

Search period start: 21 May 2018 00:00
Search period end: 31 May 2018 00:00
Orbit: 402 x 407 km, 51.6° (Epoch: 21 May)

Date Brightness Start Highest point End Pass type
(mag) Time Alt. Az. Time Alt. Az. Time Alt. Az.
21 May -3.0 00:47:04 10° W 00:50:17 51° N 00:53:29 10° ENE visible
21 May -3.8 02:23:42 10° WNW 02:26:59 79° NNE 02:30:15 10° ESE visible
21 May -2.8 04:00:27 10° W 04:03:15 26° SW 04:06:02 10° SSE visible
21 May -3.8 22:18:19 10° SW 22:21:30 53° SSE 22:24:43 10° ENE visible
21 May -3.2 23:54:47 10° W 23:58:01 56° N 00:01:16 10° ENE visible
22 May -3.4 01:31:30 10° WNW 01:34:46 62° NNE 01:38:00 10° E visible
22 May -3.5 03:08:05 10° WNW 03:11:12 42° SSW 03:14:17 10° SE visible
22 May -3.2 21:26:26 10° SSW 21:29:25 33° SSE 21:32:24 10° E visible
22 May -3.6 23:02:31 10° W 23:05:46 69° NNW 23:09:02 10° ENE visible
23 May -3.1 00:39:17 10° WNW 00:42:30 53° N 00:45:43 10° E visible
23 May -4.0 02:15:49 10° WNW 02:19:04 65° SSW 02:22:18 10° ESE visible
23 May -2.0 03:53:18 10° WSW 03:55:03 14° SW 03:56:49 10° S visible
23 May -3.9 22:10:16 10° WSW 22:13:33 89° ESE 22:16:50 10° ENE visible
23 May -3.0 23:47:01 10° WNW 23:50:12 51° N 23:53:25 10° ENE visible
24 May -3.9 01:23:36 10° WNW 01:26:53 87° NNE 01:27:54 41° ESE visible
24 May-1.203:07:32SSE03:07:32SSE03:00:18Wvisible
24 May -3.8 21:18:07 10° SW 21:21:21 62° SSE 21:24:36 10° ENE visible
24 May -3.1 22:54:41 10° W 22:57:55 54° N 23:01:08 10° ENE visible
25 May -3.5 00:31:23 10° WNW 00:34:38 67° NNE 00:35:40 39° E visible
25 May -1.3 02:07:59 10° W 02:08:15 12° W 02:08:15 12° W visible
25 May -3.4 22:02:22 10° W 22:05:37 63° NNW 22:08:52 10° ENE visible
25 May -3.2 23:39:07 10° WNW 23:42:21 55° N 23:44:33 18° E visible
26 May -2.2 01:15:40 10° WNW 01:17:10 24° W 01:17:10 24° W visible
26 May -3.7 21:10:04 10° WSW 21:13:20 81° NNW 21:16:38 10° ENE visible
26 May -3.0 22:46:49 10° WNW 22:50:02 51° N 22:53:14 10° E visible
27 May -3.8 00:23:23 10° WNW 00:26:19 68° W 00:26:19 68° W visible
27 May -3.0 21:54:28 10° W 21:57:41 52° N 22:00:55 10° ENE visible
27 May -3.7 23:31:07 10° WNW 23:34:24 73° NNE 23:35:33 37° E visible
28 May -1.3 01:07:48 10° W 01:08:10 12° W 01:08:10 12° W visible
28 May -3.3 22:38:51 10° WNW 22:42:05 59° N 22:44:51 13° E visible
29 May -2.7 00:15:24 10° WNW 00:17:29 32° W 00:17:29 32° W visible
29 May -3.0 21:46:31 10° WNW 21:49:44 52° N 21:52:56 10° E visible
29 May -4.0 23:23:04 10° WNW 23:26:20 73° SSW 23:26:49 59° SE visible
30 May -3.8 22:30:46 10° WNW 22:34:03 80° NNE 22:36:11 20° ESE visible
